WHISKEYTOWN DAM (USBR) (WHI)

Elevation: 1210' · SACRAMENTO R basin · Operator: US Bureau of Reclamation

Provisional data, subject to change.
Query executed Monday at 1:29:23   clock

Select a sensor type for a plot of data.
Note: Reservoir Flows are daily averages.

Earlier

Date RES ELE    STORAGE    RES CHG    OUTFLOW    INFLOW    EVAP    RIV REL    PPT INC    RAIN    SPILL    DIS PWR   
 FEET   AF   AF   CFS   CFS   CFS   CFS   INCHES   INCHES   CFS   CFS  
03/28/2015 1198.49 205653 -176 217 140 12 181 0.00 47.85 0 36
03/29/2015 1198.42 205446 -207 202 99 1 181 0.00 47.85 0 21
03/30/2015 1198.33 205181 -265 198 75 11 181 0.00 47.85 0 17
03/31/2015 1198.24 204916 -265 198 70 6 181 0.00 47.85 0 17
04/01/2015 1198.16 204680 -236 196 87 10 181 0.00 47.85 0 15
04/02/2015 1198.07 204415 -265 208 84 10 182 0.00 47.85 0 26
04/03/2015 1198.29 205063 648 196 533 10 182 0.00 47.85 0 14
04/04/2015 1198.50 205682 619 197 518 9 182 0.00 47.85 0 15
04/05/2015 1198.62 206036 354 196 392 18 182 0.00 47.85 0 14
04/06/2015 1198.74 206389 353 196 376 2 182 0.05 47.90 0 14
04/07/2015 1198.91 206890 501 198 451 0 182 1.21 49.11 0 16
04/08/2015 1199.04 207274 384 198 392 0 182 0.81 49.92 0 16
04/09/2015 1199.18 207690 416 198 415 7 182 0.00 49.92 0 16
04/10/2015 1199.31 208076 386 196 400 9 182 0.00 49.92 0 14
04/11/2015 1199.31 208076 0 196 205 9 182 0.00 49.92 0 14
04/12/2015 1199.31 208076 -- 202 237 35 182 0.00 49.92 0 20
04/13/2015 1199.35 208195 119 201 288 27 182 0.00 49.92 0 19
04/14/2015 1199.54 208759 564 196 490 10 182 0.00 49.92 0 14
04/15/2015 1199.80 209531 772 196 593 8 182 0.00 49.92 0 14
04/16/2015 1200.11 210454 923 197 673 11 182 0.00 49.92 0 15
04/17/2015 1200.54 211742 1288 200 860 11 183 0.00 49.92 0 17
04/18/2015 1200.97 213029 1287 199 860 12 183 0.00 49.92 0 16
04/19/2015 1201.24 213843 814 203 625 12 183 0.00 49.92 0 20
04/20/2015 1201.65 215080 1237 199 837 14 183 0.00 49.92 0 16
04/21/2015 1202.41 217382 2302 197 1371 13 183 0.00 49.92 0 14
04/22/2015 1203.08 219420 2038 197 1238 14 183 0.00 49.92 0 14
04/23/2015 1203.72 221380 1960 199 1203 16 183 0.00 49.92 0 16
04/24/2015 1204.46 223657 2277 196 1350 6 182 0.00 49.92 0 14
04/25/2015 1205.11 225665 2008 196 1213 5 182 0.00 49.92 0 14
04/26/2015 -- -- -- -- -- -- -- -- -- -- --
04/27/2015 -- -- -- -- -- -- -- -- -- -- --

Later | Latest

Warning! This data is preliminary and subject to revision.

Show WHI Map | Plot WHI Data | 1 Month WHI Data | Real-Time WHI Data | WHI Info